Regional Weather Roundup
Issued by NWS

Home | Current Version | Previous Version | Text Only | Print | Product List | Glossary On
Versions: 1 2 3 4 5 6 7 8 9 10 11 12 13 14 15 16 17 18 19 20 21 22 23 24 25 26 27 28 29 30 31 32 33 34 35 36 37 38 39 40 41 42 43 44 45 46 47 48 49 50
000
ASUS45 KABQ 021010
RWRNM
NEW MEXICO REGIONAL WEATHER ROUNDUP
NATIONAL WEATHER SERVICE ALBUQUERQUE NM
400 AM MDT THU JUL 02 2015

NOTE: "FAIR" MEANS FEW OR NO CLOUDS BELOW 12,000 FEET AGL WITH NO
       SIGNIFICANT WEATHER OR OBSTRUCTIONS TO VISION.

      THIS PRODUCT IS RELEASED AS TWO VERSIONS.  ONE VERSION NEAR
      THE TOP OF THE HOUR CONTAINING PRELIMINARY DATA FROM ALBUQUERQUE
      AND OTHER STATIONS.  A FINAL VERSION WITH ADDITIONAL DATA IS
      ISSUED ABOUT 10 MINUTES AFTER THE HOUR.

NMZ501-503-504-510>518-021100-
NORTHWEST PLATEAU/NORTHCENTRAL MOUNTAINS

CITY           SKY/WX    TMP DP  RH WIND       PRES   REMARKS
FARMINGTON     PTCLDY    74  50  42 NW13      30.17R
SANTA FE       CLOUDY    63  57  81 N8        30.22S
TAOS           CLOUDY    57  45  62 N3        30.30S

$$
NMZ402-403-502-505>509-021100-
WESTCENTRAL MOUNTAINS/SOUTHWEST MOUNTAINS

CITY           SKY/WX    TMP DP  RH WIND       PRES   REMARKS
GALLUP         CLOUDY    64  53  67 CALM      30.23R
SILVER CITY      N/A     72  54  53 NW13      30.14S

$$
NMZ407-409-411-412-021100-
SOUTHERN DESERTS

CITY           SKY/WX    TMP DP  RH WIND       PRES   REMARKS
DEMING         CLEAR     75  56  51 SW8       30.04S
HOLLOMAN AFB   PTCLDY    70  46  41 E3        29.99S
ALAMOGORDO     PTCLDY    70  46  43 N3        30.01F
T OR C         PTCLDY    79  54  41 NW10      30.05F

$$
NMZ519>523-021100-
CENTRAL VALLEYS/CENTRAL HIGHLANDS

CITY           SKY/WX    TMP DP  RH WIND       PRES   REMARKS
ALBUQUERQUE    CLOUDY    76  52  43 N9        30.13R
DOUBLE EAGLE   MOCLDY    70  54  56 N9        30.17S
CLINES CORNERS LGT RAIN  60  56  86 E10       30.25F
BELEN          FAIR      73  48  41 W9        30.11R
SOCORRO        NOT AVBL

$$
NMZ524>526-539-540-021100-
SOUTHCENTRAL MOUNTAINS

CITY           SKY/WX    TMP DP  RH WIND       PRES   REMARKS
RUIDOSO        PTCLDY    66  48  52 CALM      30.24S

$$
NMZ527>531-021100-
NORTHEAST HIGHLANDS/NORTHEAST PLAINS

CITY           SKY/WX    TMP DP  RH WIND       PRES   REMARKS
LAS VEGAS      CLOUDY    59  56  89 NE3       30.28F
RATON          MOCLDY    58  56  93 N7        30.22F
CLAYTON        CLOUDY    64  60  87 NW10      30.09F

$$
NMZ532>537-021100-
EASTCENTRAL PLAINS

CITY           SKY/WX    TMP DP  RH WIND       PRES   REMARKS
TUCUMCARI      LGT RAIN  73  59  61 N5        30.07F
CANNON AFB     CLOUDY    73  60  63 N9        30.08F
CLOVIS AIRPORT CLOUDY    72  59  64 NW13        N/A

$$
NMZ028-029-538-021100-
SOUTHEAST PLAINS

CITY           SKY/WX    TMP DP  RH WIND       PRES   REMARKS
ROSWELL        PTCLDY    70  60  70 NW3       30.02S
ARTESIA        CLEAR     70  63  78 S6        30.01S
CARLSBAD       CLEAR     70  62  76 S7        29.98F
HOBBS          CLEAR     66  66 100 S6        30.04S


$$


USA.gov is the U.S. government's official web portal to all federal, state and local government web resources and services.